GLOBALSTAR M004 DEB, 43356

Orbit data source: Space-Track

GLOBALSTAR M004 DEB, 43356 is space debris in LEO originally from a launch on Sat, 14 Feb 1998 UTC launched from the Air Force Eastern Test Range (AFETR). Debris objects in space refer to the collection of defunct objects orbiting the Earth. Examples of debris include non-operational satellites, rocket bodies, and fragments generated from explosions, collisions, or faulty payload assembly.

Loading next visibility...
Identifier
43356, 1998-008G
Orbit
LEO
Country
Flag of USUS
Related business
Manufacturer
Unknown
Mission
Spacecraft
Bus & Motor
Unknown
Mass
Unknown
Launch date (UTC)
1998-02-14 (28 years ago)
Launch vehicle
Unknown
Launch site
Air Force Eastern Test Range (AFETR)
Object type
Payload
Rocket body
Debris
Shape & HBR
Unknown shape, 0.1 m
Radar Cross Section
Small (<0.1 m²)

Expand to show TLE details & history
Last TLE update: 3 days ago

TLE from 3 days ago
0 GLOBALSTAR M004 DEB
1 43356U 98008G   26035.46745825  .00000961  00000-0  47719-2 0  9999
2 43356  51.9059 151.3103 0036440 307.0044  52.7496 12.78555938468319
Epoch: 2026-02-04T11:13Z
TLE epoch observation values (Epoch: 2026-02-04T11:13:08.392Z)
Latitude
-0.00008°
Longitude
-151.60835°
Altitude
1,330.986 km
Speed
7.201 km/s
True Right ascension
10h 05m 14s
True Declination
0° 00' 00"
Sunlit
Object was in full shadow at epoch
Visualization orbit readout
Latitude
Unknown
Longitude
Unknown
Altitude
Unknown
Speed
Unknown
Apparent Right ascension
Unknown
Apparent Declination
Unknown
Sunlit
N/A
Visualization observer readout
Local Sidereal Time
20:07:23
Azimuth
Unknown
Elevation
Unknown
Doppler factor
Unknown
Orbital elements
Apogee altitude
1,375.844 km
Perigee altitude
1,319.538 km
Semi-major axis
7,725.828 km
Eccentricity
0.00364
Inclination
51.9059°
RAAN
151.3103°
Arg. of periapsis
307.0044°
True anomaly
53.0829°
Mean anomaly
52.7496°
Eccentric anomaly
52.91616°
Mean motion
3.19614 °/min
Orbital period
112.64 mins
BSTAR
0.0047719
Loading maneuver chart data...
Computing Atmospheric mass density...
Loading historical data...
Loading historical data...
Loading historical data...
Loading historical data...
Loading historical data...
Loading historical data...
Loading historical data...

Documentation

Showing up to 5 results
|